Location: Macksville High School
(37.9611°N, 99.9654°W)
Time: 01:53:01
(UTC+00:00)

USA 276 - Pass Details

Date: 17 January 2021
Orbit: 377 x 396 km, 50.0° (Epoch: 03 February)

Event Time Altitude Azimuth Distance (km) Brightness Sun altitude
Exits shadow 12:49:58 19° 317° (NW) 1,002 3.6 -12.5°
Maximum altitude 12:52:04 63° 34° (NE) 441 2.4 -12.1°
Drops below altitude 10° 12:55:14 10° 117° (ESE) 1,424 6.4 -11.5°
Sets 12:57:19 0° 121° (ESE) 2,280 7.8 -11.2°
